Location: Rowland
(34.5359°N, 79.2929°W)
Time: 13:46:49
(UTC+00:00)

SR - Pass Details

Date: 06 October 2022
Orbit: 577 x 875 km, 66.7° (Epoch: 28 November)

Event Time Altitude Azimuth Distance (km) Brightness Sun altitude
Rises 11:10:08 0° 325° (NW) 3,242 ? -2.0°
Reaches altitude 10° 11:12:45 10° 318° (NW) 2,262 ? -1.4°
Maximum altitude 11:17:29 39° 251° (WSW) 1,051 ? -0.5°
Drops below altitude 10° 11:21:51 10° 183° (S) 2,068 ? 0.4°
Sets 11:24:09 0° 175° (S) 2,931 ? 0.9°
